Weather in Bukhlovka

Russia / Kaluga Oblast     55°11′17″N   36°54′28″E
temp.,
°C
wind,
m/s
gust,
m/s
humid.,
%
clouds,
%
prec.,
mm/h
press.,
hPa
HPBL,
m
19 may, wed
wed1900:00+19ese416760 0.0 1004613
03:00+16ese310800 0.0 1004314
06:00+15ese4118392 0.0 1004375
09:00+19sse587164 0.1 10051134
12:00+20sse576634 0.3 10061342
15:00+21sse585982 0.8 10061521
18:00+20sse5868100 0.3 1006868
21:00+15ese2493100 1.0 100784
20 may, thu
thu2000:00+13e279794 0.5 1006163
03:00+13e5149697 0.8 1004513
06:00+11se412938 0.2 1004653
09:00+15se697284 0.2 10041053
12:00+14sse598298 0.4 10051062
15:00+15sse598592 1.6 10041038
18:00+14s598665 0.8 1003893
21:00+12s4992100 0.9 1003783
21 may, fri
fri2100:00+10ssw4893100 0.1 1003834
03:00+10sw51196100 0.5 1004749
06:00+10w51197100 0.6 1006733
09:00+10w599395 0.7 1010722
12:00+16wnw5751100 0.0 10121476
15:00+18w5643100 0.0 10131808
18:00+17wsw355492 0.0 10141724
21:00+11sw2679100 0.0 1016108
22 may, sat
sat2200:00+8w23880 0.0 101842
03:00+6w22905 0.0 101916
06:00+8wnw11800 0.0 101965
09:00+15sse11530 0.0 1020752
12:00+18s22405 0.0 10191703
15:00+19ssw33375 0.0 10181969
18:00+19sw2352100 0.0 10181455
21:00+12s11810 0.0 101810
23 may, sun
sun2300:00+10se24910 0.0 101868
03:00+9se22962 0.0 101724
06:00+10se39890 0.0 1016248
09:00+16ese466348 0.0 1014700
12:00+20ese46578 0.0 10111094
15:00+16ese3997100 2.6 1006647
18:00+16se2899100 1.7 1003441
21:00+15ssw41098100 3.1 1003521